Time,TemperatureF,DewpointF,PressureIn,WindDirection,WindDirectionDegrees,WindSpeedMPH,WindSpeedGustMPH,Humidity,HourlyPrecipIn,Conditions,Clouds,dailyrainin,SoftwareType,DateUTC
2013-06-26 00:04:00,57.7,52.7,30.17,SW,229,0.0,1.0,83,0.00,,,0.33,meteohub,2013-06-26 07:04:00,
2013-06-26 00:09:00,57.7,52.7,30.17,SW,229,0.0,1.0,83,0.00,,,0.00,meteohub,2013-06-26 07:09:00,
2013-06-26 00:14:00,57.6,52.5,30.17,SW,229,1.0,1.0,83,0.00,,,0.00,meteohub,2013-06-26 07:14:00,
2013-06-26 00:19:00,57.7,52.3,30.17,WNW,294,1.0,1.0,82,0.00,,,0.00,meteohub,2013-06-26 07:19:00,
2013-06-26 00:24:00,57.9,52.7,30.17,West,272,1.0,1.0,83,0.00,,,0.00,meteohub,2013-06-26 07:24:00,
2013-06-26 00:29:00,57.9,52.7,30.17,SW,234,1.0,3.0,83,0.00,,,0.00,meteohub,2013-06-26 07:29:00,
2013-06-26 00:34:00,57.9,52.7,30.17,West,275,0.0,3.0,83,0.00,,,0.00,meteohub,2013-06-26 07:34:00,
2013-06-26 00:40:00,57.9,52.5,30.17,North,5,0.0,3.0,82,0.00,,,0.00,meteohub,2013-06-26 07:40:00,
2013-06-26 00:45:00,57.7,52.3,30.17,NE,40,1.0,3.0,82,0.00,,,0.00,meteohub,2013-06-26 07:45:00,
2013-06-26 00:50:00,57.7,52.0,30.17,NNW,341,1.0,3.0,81,0.00,,,0.00,meteohub,2013-06-26 07:50:00,
2013-06-26 00:55:00,57.9,52.2,30.17,WNW,292,0.0,2.0,81,0.00,,,0.00,meteohub,2013-06-26 07:55:00,
2013-06-26 01:00:00,57.7,52.0,30.17,West,273,0.0,4.0,81,0.00,,,0.00,meteohub,2013-06-26 08:00:00,
2013-06-26 01:05:00,57.7,52.0,30.18,West,273,0.0,4.0,81,0.00,,,0.00,meteohub,2013-06-26 08:05:00,
2013-06-26 01:10:00,57.7,51.6,30.18,West,273,0.0,4.0,80,0.00,,,0.00,meteohub,2013-06-26 08:10:00,
2013-06-26 01:15:00,57.7,51.6,30.18,West,273,0.0,2.0,80,0.00,,,0.00,meteohub,2013-06-26 08:15:00,
2013-06-26 01:20:00,57.6,51.1,30.18,West,273,0.0,1.0,79,0.00,,,0.00,meteohub,2013-06-26 08:20:00,
2013-06-26 01:25:00,57.6,51.1,30.18,SW,219,0.0,1.0,79,0.00,,,0.00,meteohub,2013-06-26 08:25:00,
2013-06-26 01:30:00,57.4,50.9,30.18,SW,219,0.0,1.0,79,0.00,,,0.00,meteohub,2013-06-26 08:30:00,
2013-06-26 01:35:00,57.4,50.9,30.18,SW,219,0.0,1.0,79,0.00,,,0.00,meteohub,2013-06-26 08:35:00,
2013-06-26 01:40:00,57.0,50.5,30.18,SW,219,0.0,0.0,79,0.00,,,0.00,meteohub,2013-06-26 08:40:00,
2013-06-26 01:46:00,57.0,49.8,30.18,NNE,24,0.0,2.0,77,0.00,,,0.00,meteohub,2013-06-26 08:46:00,
2013-06-26 01:51:00,57.0,49.8,30.18,ENE,78,0.0,2.0,77,0.00,,,0.00,meteohub,2013-06-26 08:51:00,
2013-06-26 01:56:00,56.8,49.6,30.18,East,82,0.0,4.0,77,0.00,,,0.00,meteohub,2013-06-26 08:56:00,
2013-06-26 02:01:00,56.8,50.0,30.18,NNW,344,0.0,4.0,78,0.00,,,0.00,meteohub,2013-06-26 09:01:00,
2013-06-26 02:06:00,56.7,49.8,30.18,NNE,25,0.0,4.0,78,0.00,,,0.00,meteohub,2013-06-26 09:06:00,
2013-06-26 02:11:00,56.7,49.8,30.18,NNE,25,0.0,2.0,78,0.00,,,0.00,meteohub,2013-06-26 09:11:00,
2013-06-26 02:16:00,56.5,49.3,30.18,ENE,63,0.0,2.0,77,0.00,,,0.00,meteohub,2013-06-26 09:16:00,
2013-06-26 02:21:00,56.5,49.3,30.18,North,350,0.0,2.0,77,0.00,,,0.00,meteohub,2013-06-26 09:21:00,
2013-06-26 02:26:00,56.5,49.3,30.18,NNE,27,1.0,2.0,77,0.00,,,0.00,meteohub,2013-06-26 09:26:00,
2013-06-26 02:31:00,56.5,49.3,30.18,NE,46,0.0,1.0,77,0.00,,,0.00,meteohub,2013-06-26 09:31:00,
2013-06-26 02:36:00,56.5,48.9,30.18,NNE,28,0.0,2.0,76,0.00,,,0.00,meteohub,2013-06-26 09:36:00,
2013-06-26 02:41:00,56.5,49.3,30.18,NNE,30,0.0,2.0,77,0.01,,,0.01,meteohub,2013-06-26 09:41:00,
2013-06-26 02:47:00,56.5,49.3,30.18,NNE,30,0.0,2.0,77,0.01,,,0.01,meteohub,2013-06-26 09:47:00,
2013-06-26 02:52:00,56.5,49.3,30.18,NNW,335,0.0,1.0,77,0.01,,,0.01,meteohub,2013-06-26 09:52:00,
2013-06-26 02:57:00,56.3,49.5,30.18,NNW,336,0.0,1.0,78,0.01,,,0.01,meteohub,2013-06-26 09:57:00,
2013-06-26 03:02:00,56.3,49.1,30.19,NNW,336,0.0,1.0,77,0.01,,,0.01,meteohub,2013-06-26 10:02:00,
2013-06-26 03:07:00,56.3,49.1,30.19,NNW,336,0.0,1.0,77,0.01,,,0.01,meteohub,2013-06-26 10:07:00,
2013-06-26 03:12:00,56.3,49.1,30.19,NNW,342,0.0,1.0,77,0.01,,,0.01,meteohub,2013-06-26 10:12:00,
2013-06-26 03:17:00,56.3,49.1,30.19,NNW,331,0.0,1.0,77,0.01,,,0.01,meteohub,2013-06-26 10:17:00,
2013-06-26 03:22:00,56.3,49.1,30.19,NNW,331,0.0,1.0,77,0.01,,,0.01,meteohub,2013-06-26 10:22:00,
2013-06-26 03:27:00,56.3,49.1,30.19,NNW,333,0.0,1.0,77,0.01,,,0.01,meteohub,2013-06-26 10:27:00,
2013-06-26 03:32:00,56.1,48.9,30.19,North,5,0.0,1.0,77,0.01,,,0.01,meteohub,2013-06-26 10:32:00,
2013-06-26 03:37:00,56.1,48.9,30.19,NNE,12,0.0,1.0,77,0.01,,,0.01,meteohub,2013-06-26 10:37:00,
2013-06-26 03:42:00,56.1,49.3,30.19,NNE,12,0.0,1.0,78,0.00,,,0.01,meteohub,2013-06-26 10:42:00,
2013-06-26 03:47:00,55.9,49.1,30.19,North,11,0.0,1.0,78,0.00,,,0.01,meteohub,2013-06-26 10:47:00,
2013-06-26 03:53:00,55.9,48.9,30.19,NNE,25,0.0,1.0,77,0.00,,,0.01,meteohub,2013-06-26 10:53:00,
2013-06-26 03:58:00,55.8,48.9,30.19,NNE,32,0.0,1.0,78,0.00,,,0.01,meteohub,2013-06-26 10:58:00,
2013-06-26 04:03:00,55.8,48.7,30.19,NNE,32,0.0,1.0,77,0.00,,,0.01,meteohub,2013-06-26 11:03:00,
2013-06-26 04:08:00,55.8,48.7,30.19,NNE,32,0.0,1.0,77,0.00,,,0.01,meteohub,2013-06-26 11:08:00,
2013-06-26 04:13:00,55.8,48.7,30.19,ESE,114,0.0,1.0,77,0.00,,,0.01,meteohub,2013-06-26 11:13:00,
2013-06-26 04:18:00,55.8,48.4,30.19,East,98,0.0,1.0,76,0.00,,,0.01,meteohub,2013-06-26 11:18:00,
2013-06-26 04:23:00,55.8,48.4,30.19,ESE,114,0.0,1.0,76,0.00,,,0.01,meteohub,2013-06-26 11:23:00,
2013-06-26 04:28:00,55.9,48.6,30.19,East,100,1.0,1.0,76,0.00,,,0.01,meteohub,2013-06-26 11:28:00,
2013-06-26 04:33:00,55.9,48.9,30.19,ESE,107,0.0,2.0,77,0.00,,,0.01,meteohub,2013-06-26 11:33:00,
2013-06-26 04:38:00,55.9,48.9,30.19,ESE,104,0.0,2.0,77,0.00,,,0.01,meteohub,2013-06-26 11:38:00,
2013-06-26 04:43:00,55.8,48.9,30.19,East,97,0.0,2.0,78,0.00,,,0.01,meteohub,2013-06-26 11:43:00,
2013-06-26 04:48:00,55.8,48.9,30.19,East,96,0.0,2.0,78,0.00,,,0.01,meteohub,2013-06-26 11:48:00,
2013-06-26 04:53:00,55.9,49.1,30.19,NNE,26,1.0,2.0,78,0.00,,,0.01,meteohub,2013-06-26 11:53:00,
2013-06-26 04:59:00,55.9,49.1,30.20,NNE,24,0.0,1.0,78,0.00,,,0.01,meteohub,2013-06-26 11:59:00,
2013-06-26 05:04:00,55.9,49.1,30.20,NNE,24,0.0,1.0,78,0.00,,,0.01,meteohub,2013-06-26 12:04:00,
2013-06-26 05:09:00,55.9,49.1,30.20,NNE,24,0.0,1.0,78,0.00,,,0.01,meteohub,2013-06-26 12:09:00,
2013-06-26 05:14:00,55.9,49.1,30.19,NNE,26,1.0,1.0,78,0.00,,,0.01,meteohub,2013-06-26 12:14:00,
2013-06-26 05:19:00,55.9,49.1,30.19,NNE,25,0.0,0.0,78,0.00,,,0.01,meteohub,2013-06-26 12:19:00,
2013-06-26 05:24:00,55.9,49.1,30.20,NNE,25,0.0,1.0,78,0.00,,,0.01,meteohub,2013-06-26 12:24:00,
2013-06-26 05:29:00,55.9,49.1,30.19,NNE,28,0.0,1.0,78,0.00,,,0.01,meteohub,2013-06-26 12:29:00,
2013-06-26 05:34:00,55.8,48.9,30.20,NE,40,1.0,2.0,78,0.00,,,0.01,meteohub,2013-06-26 12:34:00,
2013-06-26 05:39:00,55.8,49.3,30.20,East,88,0.0,2.0,79,0.00,,,0.01,meteohub,2013-06-26 12:39:00,
2013-06-26 05:44:00,55.8,49.3,30.21,East,88,0.0,2.0,79,0.00,,,0.01,meteohub,2013-06-26 12:44:00,
2013-06-26 05:49:00,55.9,49.5,30.21,East,88,0.0,2.0,79,0.00,,,0.01,meteohub,2013-06-26 12:49:00,
2013-06-26 05:54:00,55.9,49.5,30.21,East,90,0.0,2.0,79,0.00,,,0.01,meteohub,2013-06-26 12:54:00,
2013-06-26 06:00:00,55.9,49.5,30.21,East,87,0.0,1.0,79,0.00,,,0.01,meteohub,2013-06-26 13:00:00,
2013-06-26 06:05:00,55.9,49.5,30.21,NNW,348,0.0,1.0,79,0.00,,,0.01,meteohub,2013-06-26 13:05:00,
2013-06-26 06:10:00,55.9,49.5,30.20,NNW,348,0.0,1.0,79,0.00,,,0.01,meteohub,2013-06-26 13:10:00,
2013-06-26 06:15:00,55.9,49.1,30.21,NNW,348,0.0,1.0,78,0.00,,,0.01,meteohub,2013-06-26 13:15:00,
2013-06-26 06:20:00,56.1,49.6,30.21,NNW,348,0.0,1.0,79,0.00,,,0.01,meteohub,2013-06-26 13:20:00,
2013-06-26 06:25:00,56.1,49.3,30.21,NNW,348,0.0,0.0,78,0.00,,,0.01,meteohub,2013-06-26 13:25:00,
2013-06-26 06:30:00,56.1,48.9,30.21,NNW,348,1.0,0.0,77,0.00,,,0.01,meteohub,2013-06-26 13:30:00,
2013-06-26 06:35:00,56.3,49.1,30.22,NW,326,0.0,1.0,77,0.00,,,0.01,meteohub,2013-06-26 13:35:00,
2013-06-26 06:40:00,56.5,49.3,30.22,NNE,14,0.0,2.0,77,0.00,,,0.01,meteohub,2013-06-26 13:40:00,
2013-06-26 06:45:00,56.5,49.3,30.22,NE,37,0.0,2.0,77,0.00,,,0.01,meteohub,2013-06-26 13:45:00,
2013-06-26 06:50:00,56.5,48.9,30.22,NE,38,0.0,2.0,76,0.00,,,0.01,meteohub,2013-06-26 13:50:00,
2013-06-26 06:55:00,56.7,49.5,30.22,NE,46,1.0,1.0,77,0.00,,,0.01,meteohub,2013-06-26 13:55:00,
2013-06-26 07:00:00,56.7,49.8,30.21,East,80,0.0,2.0,78,0.00,,,0.01,meteohub,2013-06-26 14:00:00,
2013-06-26 07:06:00,56.7,49.5,30.22,NE,49,0.0,2.0,77,0.00,,,0.01,meteohub,2013-06-26 14:06:00,
2013-06-26 07:11:00,56.8,49.6,30.22,NE,49,0.0,2.0,77,0.00,,,0.01,meteohub,2013-06-26 14:11:00,
2013-06-26 07:16:00,56.8,50.4,30.22,NE,48,0.0,1.0,79,0.00,,,0.01,meteohub,2013-06-26 14:16:00,
2013-06-26 07:21:00,57.2,50.7,30.22,ENE,76,1.0,1.0,79,0.00,,,0.01,meteohub,2013-06-26 14:21:00,
2013-06-26 07:26:00,57.6,51.4,30.22,ENE,75,0.0,1.0,80,0.00,,,0.01,meteohub,2013-06-26 14:26:00,
2013-06-26 07:31:00,57.6,52.2,30.22,SSW,192,0.0,1.0,82,0.00,,,0.01,meteohub,2013-06-26 14:31:00,
2013-06-26 07:36:00,57.7,52.7,30.23,South,191,0.0,1.0,83,0.00,,,0.01,meteohub,2013-06-26 14:36:00,
2013-06-26 07:41:00,57.7,53.2,30.23,SE,136,1.0,1.0,85,0.00,,,0.01,meteohub,2013-06-26 14:41:00,
2013-06-26 07:46:00,57.9,53.1,30.23,SE,134,0.0,2.0,84,0.00,,,0.01,meteohub,2013-06-26 14:46:00,
2013-06-26 07:51:00,57.7,53.2,30.22,NE,35,3.0,3.0,85,0.00,,,0.01,meteohub,2013-06-26 14:51:00,
2013-06-26 07:56:00,57.7,53.6,30.23,NNE,32,2.0,3.0,86,0.00,,,0.01,meteohub,2013-06-26 14:56:00,
2013-06-26 08:01:00,57.7,53.6,30.23,NNE,17,0.0,3.0,86,0.00,,,0.01,meteohub,2013-06-26 15:01:00,
2013-06-26 08:07:00,57.7,53.2,30.23,NE,55,0.0,3.0,85,0.00,,,0.01,meteohub,2013-06-26 15:07:00,
2013-06-26 08:12:00,57.7,53.6,30.23,NNW,333,1.0,2.0,86,0.00,,,0.01,meteohub,2013-06-26 15:12:00,
2013-06-26 08:17:00,57.7,53.2,30.23,North,351,0.0,2.0,85,0.00,,,0.01,meteohub,2013-06-26 15:17:00,
2013-06-26 08:22:00,58.1,53.6,30.23,NW,317,0.0,2.0,85,0.00,,,0.01,meteohub,2013-06-26 15:22:00,
2013-06-26 08:27:00,58.3,54.1,30.23,WNW,294,1.0,2.0,86,0.00,,,0.01,meteohub,2013-06-26 15:27:00,
2013-06-26 08:32:00,58.3,54.1,30.24,NW,323,0.0,2.0,86,0.00,,,0.01,meteohub,2013-06-26 15:32:00,
2013-06-26 08:37:00,58.5,54.3,30.24,WNW,290,0.0,2.0,86,0.00,,,0.01,meteohub,2013-06-26 15:37:00,
2013-06-26 08:42:00,58.8,54.7,30.24,West,272,0.0,2.0,86,0.00,,,0.01,meteohub,2013-06-26 15:42:00,
2013-06-26 08:47:00,59.2,55.0,30.24,WNW,297,1.0,2.0,86,0.00,,,0.01,meteohub,2013-06-26 15:47:00,
2013-06-26 08:52:00,59.2,55.0,30.25,WSW,253,0.0,2.0,86,0.00,,,0.01,meteohub,2013-06-26 15:52:00,
2013-06-26 08:57:00,59.4,55.2,30.25,NW,305,1.0,2.0,86,0.00,,,0.01,meteohub,2013-06-26 15:57:00,
2013-06-26 09:02:00,59.4,55.2,30.24,NNE,23,0.0,2.0,86,0.00,,,0.01,meteohub,2013-06-26 16:02:00,
2013-06-26 09:08:00,59.5,55.4,30.24,NNE,23,0.0,2.0,86,0.00,,,0.01,meteohub,2013-06-26 16:08:00,
2013-06-26 09:13:00,59.7,55.6,30.24,WNW,300,0.0,2.0,86,0.00,,,0.01,meteohub,2013-06-26 16:13:00,
2013-06-26 09:18:00,60.3,56.1,30.25,WNW,302,0.0,2.0,86,0.00,,,0.01,meteohub,2013-06-26 16:18:00,
2013-06-26 09:23:00,60.8,56.3,30.25,NNE,19,0.0,0.0,85,0.00,,,0.01,meteohub,2013-06-26 16:23:00,
2013-06-26 09:28:00,61.0,56.1,30.25,ESE,109,0.0,1.0,84,0.00,,,0.01,meteohub,2013-06-26 16:28:00,
2013-06-26 09:33:00,61.0,56.1,30.25,East,98,0.0,1.0,84,0.00,,,0.01,meteohub,2013-06-26 16:33:00,
2013-06-26 09:38:00,61.2,55.9,30.25,East,98,0.0,1.0,83,0.00,,,0.01,meteohub,2013-06-26 16:38:00,
2013-06-26 09:43:00,61.3,56.5,30.25,NNE,30,2.0,2.0,84,0.00,,,0.01,meteohub,2013-06-26 16:43:00,
2013-06-26 09:48:00,61.3,56.1,30.25,NE,50,2.0,2.0,83,0.00,,,0.01,meteohub,2013-06-26 16:48:00,
2013-06-26 09:53:00,61.3,56.5,30.25,NNE,27,0.0,2.0,84,0.00,,,0.01,meteohub,2013-06-26 16:53:00,
2013-06-26 09:58:00,61.5,57.0,30.25,NE,35,0.0,2.0,85,0.00,,,0.01,meteohub,2013-06-26 16:58:00,
2013-06-26 10:03:00,61.5,56.7,30.25,NW,326,2.0,2.0,84,0.00,,,0.01,meteohub,2013-06-26 17:03:00,
2013-06-26 10:09:00,61.3,56.5,30.25,NNW,346,1.0,3.0,84,0.00,,,0.01,meteohub,2013-06-26 17:09:00,
2013-06-26 10:14:00,61.2,56.3,30.25,NW,310,2.0,3.0,84,0.00,,,0.01,meteohub,2013-06-26 17:14:00,
2013-06-26 10:19:00,61.0,56.1,30.25,NNE,14,0.0,3.0,84,0.00,,,0.01,meteohub,2013-06-26 17:19:00,
2013-06-26 10:24:00,61.2,56.3,30.25,NW,317,0.0,3.0,84,0.00,,,0.01,meteohub,2013-06-26 17:24:00,
2013-06-26 10:29:00,61.3,56.8,30.25,NW,318,0.0,3.0,85,0.00,,,0.01,meteohub,2013-06-26 17:29:00,
2013-06-26 10:34:00,61.5,57.0,30.25,NNW,328,0.0,2.0,85,0.00,,,0.01,meteohub,2013-06-26 17:34:00,
2013-06-26 10:39:00,61.5,56.7,30.26,ENE,69,0.0,0.0,84,0.00,,,0.01,meteohub,2013-06-26 17:39:00,
2013-06-26 10:44:00,61.5,57.0,30.26,SSW,205,0.0,1.0,85,0.00,,,0.01,meteohub,2013-06-26 17:44:00,
2013-06-26 10:49:00,61.5,57.0,30.26,SW,225,0.0,1.0,85,0.01,,,0.02,meteohub,2013-06-26 17:49:00,
2013-06-26 10:54:00,61.5,57.0,30.26,NW,311,1.0,1.0,85,0.01,,,0.02,meteohub,2013-06-26 17:54:00,
2013-06-26 10:59:00,61.2,57.0,30.26,NW,318,1.0,1.0,86,0.02,,,0.03,meteohub,2013-06-26 17:59:00,
2013-06-26 11:05:00,60.6,56.5,30.26,West,279,1.0,3.0,86,0.03,,,0.04,meteohub,2013-06-26 18:05:00,
2013-06-26 11:10:00,60.3,56.1,30.27,WNW,294,2.0,4.0,86,0.04,,,0.05,meteohub,2013-06-26 18:10:00,
2013-06-26 11:15:00,60.1,55.9,30.27,NNW,331,0.0,4.0,86,0.04,,,0.05,meteohub,2013-06-26 18:15:00,
2013-06-26 11:20:00,60.3,55.8,30.27,NNW,338,0.0,4.0,85,0.04,,,0.05,meteohub,2013-06-26 18:20:00,
2013-06-26 11:25:00,60.4,55.9,30.27,North,350,0.0,2.0,85,0.04,,,0.05,meteohub,2013-06-26 18:25:00,
2013-06-26 11:30:00,61.2,56.7,30.27,NE,36,0.0,2.0,85,0.04,,,0.06,meteohub,2013-06-26 18:30:00,
2013-06-26 11:35:00,61.9,57.4,30.27,NE,35,0.0,1.0,85,0.05,,,0.06,meteohub,2013-06-26 18:35:00,
2013-06-26 11:40:00,62.4,58.1,30.28,SSE,160,2.0,2.0,86,0.05,,,0.06,meteohub,2013-06-26 18:40:00,
2013-06-26 11:45:00,62.4,57.9,30.27,ESE,112,0.0,1.0,85,0.05,,,0.06,meteohub,2013-06-26 18:45:00,
2013-06-26 11:50:00,62.4,57.9,30.27,ESE,111,1.0,3.0,85,0.04,,,0.06,meteohub,2013-06-26 18:50:00,
2013-06-26 11:55:00,62.8,58.5,30.27,ESE,105,1.0,3.0,86,0.03,,,0.06,meteohub,2013-06-26 18:55:00,
2013-06-26 12:00:00,62.8,58.3,30.27,NNE,19,0.0,1.0,85,0.02,,,0.06,meteohub,2013-06-26 19:00:00,
2013-06-26 12:05:00,63.0,58.6,30.27,NNW,327,1.0,2.0,86,0.01,,,0.06,meteohub,2013-06-26 19:05:00,
2013-06-26 12:11:00,62.2,57.7,30.27,NW,313,1.0,3.0,85,0.01,,,0.06,meteohub,2013-06-26 19:11:00,
2013-06-26 12:16:00,62.2,57.7,30.27,NW,321,0.0,3.0,85,0.01,,,0.06,meteohub,2013-06-26 19:16:00,
2013-06-26 12:21:00,63.1,58.6,30.28,ESE,102,0.0,3.0,85,0.01,,,0.06,meteohub,2013-06-26 19:21:00,
2013-06-26 12:26:00,63.7,58.8,30.28,SE,138,1.0,2.0,84,0.01,,,0.06,meteohub,2013-06-26 19:26:00,
2013-06-26 12:31:00,64.0,59.2,30.28,SSE,161,2.0,3.0,84,0.00,,,0.06,meteohub,2013-06-26 19:31:00,
2013-06-26 12:36:00,64.4,58.8,30.28,ESE,121,0.0,3.0,82,0.00,,,0.06,meteohub,2013-06-26 19:36:00,
2013-06-26 12:41:00,64.6,59.7,30.28,NW,326,4.0,4.0,84,0.00,,,0.06,meteohub,2013-06-26 19:41:00,
2013-06-26 12:46:00,63.7,58.8,30.29,WNW,283,1.0,4.0,84,0.00,,,0.06,meteohub,2013-06-26 19:46:00,
2013-06-26 12:51:00,63.3,58.8,30.28,WNW,294,3.0,4.0,85,0.00,,,0.06,meteohub,2013-06-26 19:51:00,
2013-06-26 12:57:00,63.7,58.8,30.28,WSW,245,1.0,5.0,84,0.00,,,0.06,meteohub,2013-06-26 19:57:00,
2013-06-26 13:02:00,64.2,59.5,30.28,WNW,300,4.0,5.0,85,0.00,,,0.06,meteohub,2013-06-26 20:02:00,
2013-06-26 13:07:00,63.9,58.3,30.28,NW,309,1.0,6.0,82,0.00,,,0.06,meteohub,2013-06-26 20:07:00,
2013-06-26 13:12:00,64.2,59.0,30.28,WSW,246,6.0,6.0,83,0.00,,,0.06,meteohub,2013-06-26 20:12:00,
2013-06-26 13:17:00,64.0,58.8,30.28,WSW,251,2.0,8.0,83,0.00,,,0.06,meteohub,2013-06-26 20:17:00,
2013-06-26 13:22:00,64.2,59.0,30.28,West,267,1.0,8.0,83,0.00,,,0.06,meteohub,2013-06-26 20:22:00,
2013-06-26 13:27:00,64.9,59.7,30.29,WNW,294,4.0,8.0,83,0.00,,,0.06,meteohub,2013-06-26 20:27:00,
2013-06-26 13:32:00,65.1,59.2,30.29,West,272,3.0,7.0,81,0.00,,,0.06,meteohub,2013-06-26 20:32:00,
2013-06-26 13:37:00,64.9,59.0,30.29,SW,217,3.0,9.0,81,0.00,,,0.06,meteohub,2013-06-26 20:37:00,
2013-06-26 13:42:00,65.1,58.8,30.29,SW,234,6.0,9.0,80,0.00,,,0.06,meteohub,2013-06-26 20:42:00,
2013-06-26 13:47:00,64.9,58.6,30.29,North,355,1.0,10.0,80,0.00,,,0.06,meteohub,2013-06-26 20:47:00,
2013-06-26 13:52:00,65.7,59.4,30.29,NW,316,3.0,10.0,80,0.00,,,0.06,meteohub,2013-06-26 20:52:00,
2013-06-26 13:58:00,66.0,59.7,30.29,West,272,6.0,10.0,80,0.00,,,0.06,meteohub,2013-06-26 20:58:00,
2013-06-26 14:03:00,66.2,59.2,30.29,NW,326,3.0,10.0,78,0.00,,,0.06,meteohub,2013-06-26 21:03:00,
2013-06-26 14:08:00,66.9,59.5,30.29,WNW,286,2.0,10.0,77,0.00,,,0.06,meteohub,2013-06-26 21:08:00,
2013-06-26 14:13:00,66.7,58.6,30.29,WNW,283,4.0,10.0,75,0.00,,,0.06,meteohub,2013-06-26 21:13:00,
2013-06-26 14:18:00,66.2,58.8,30.29,WSW,256,1.0,10.0,77,0.00,,,0.06,meteohub,2013-06-26 21:18:00,
2013-06-26 14:23:00,66.0,58.6,30.29,West,260,5.0,10.0,77,0.00,,,0.06,meteohub,2013-06-26 21:23:00,
2013-06-26 14:28:00,65.8,58.5,30.29,SSW,211,7.0,10.0,77,0.00,,,0.06,meteohub,2013-06-26 21:28:00,
2013-06-26 14:33:00,65.7,56.8,30.30,South,186,5.0,10.0,73,0.00,,,0.06,meteohub,2013-06-26 21:33:00,
2013-06-26 14:38:00,65.8,56.5,30.30,SSE,153,7.0,12.0,72,0.00,,,0.06,meteohub,2013-06-26 21:38:00,
2013-06-26 14:43:00,66.0,55.9,30.30,WSW,256,2.0,12.0,70,0.00,,,0.06,meteohub,2013-06-26 21:43:00,
2013-06-26 14:48:00,66.2,56.1,30.30,SSW,206,7.0,12.0,70,0.00,,,0.06,meteohub,2013-06-26 21:48:00,
2013-06-26 14:53:00,66.0,55.6,30.30,WSW,251,3.0,15.0,69,0.00,,,0.06,meteohub,2013-06-26 21:53:00,
2013-06-26 14:58:00,66.0,56.3,30.30,NW,319,4.0,15.0,71,0.00,,,0.06,meteohub,2013-06-26 21:58:00,
2013-06-26 15:04:00,66.2,56.8,30.30,WSW,256,2.0,15.0,72,0.00,,,0.06,meteohub,2013-06-26 22:04:00,
2013-06-26 15:09:00,66.6,56.5,30.30,West,277,6.0,14.0,70,0.00,,,0.06,meteohub,2013-06-26 22:09:00,
2013-06-26 15:14:00,67.5,57.0,30.30,SW,219,8.0,12.0,69,0.00,,,0.06,meteohub,2013-06-26 22:14:00,
2013-06-26 15:19:00,67.6,56.7,30.30,NW,304,3.0,10.0,68,0.00,,,0.06,meteohub,2013-06-26 22:19:00,
2013-06-26 15:24:00,67.5,55.2,30.30,SSW,205,6.0,10.0,65,0.00,,,0.06,meteohub,2013-06-26 22:24:00,
2013-06-26 15:29:00,67.8,56.1,30.30,WSW,253,5.0,10.0,66,0.00,,,0.06,meteohub,2013-06-26 22:29:00,
2013-06-26 15:34:00,68.7,56.8,30.30,SSW,209,4.0,11.0,66,0.00,,,0.06,meteohub,2013-06-26 22:34:00,
2013-06-26 15:39:00,69.3,55.8,30.30,WSW,249,4.0,11.0,62,0.00,,,0.06,meteohub,2013-06-26 22:39:00,
2013-06-26 15:44:00,69.6,56.5,30.30,WSW,237,10.0,10.0,63,0.00,,,0.06,meteohub,2013-06-26 22:44:00,
2013-06-26 15:50:00,69.4,54.9,30.30,West,267,3.0,8.0,60,0.00,,,0.06,meteohub,2013-06-26 22:50:00,
2013-06-26 15:55:00,69.3,55.2,30.30,WNW,300,3.0,11.0,61,0.00,,,0.06,meteohub,2013-06-26 22:55:00,
2013-06-26 16:00:00,69.1,55.6,30.30,SW,236,7.0,11.0,62,0.00,,,0.06,meteohub,2013-06-26 23:00:00,
2013-06-26 16:05:00,68.7,54.3,30.31,WSW,256,6.0,10.0,60,0.00,,,0.06,meteohub,2013-06-26 23:05:00,
2013-06-26 16:10:00,68.5,54.5,30.31,WSW,256,8.0,9.0,61,0.00,,,0.06,meteohub,2013-06-26 23:10:00,
2013-06-26 16:15:00,68.5,55.0,30.31,WNW,295,1.0,8.0,62,0.00,,,0.06,meteohub,2013-06-26 23:15:00,
2013-06-26 16:20:00,68.5,54.5,30.30,SW,228,4.0,9.0,61,0.00,,,0.06,meteohub,2013-06-26 23:20:00,
2013-06-26 16:25:00,68.7,54.3,30.30,SSW,211,6.0,9.0,60,0.00,,,0.06,meteohub,2013-06-26 23:25:00,
2013-06-26 16:30:00,69.1,55.0,30.30,SSW,211,3.0,8.0,61,0.00,,,0.06,meteohub,2013-06-26 23:30:00,
2013-06-26 16:35:00,69.1,54.7,30.30,SW,236,1.0,7.0,60,0.00,,,0.06,meteohub,2013-06-26 23:35:00,
2013-06-26 16:40:00,69.1,54.7,30.30,SSW,205,1.0,7.0,60,0.00,,,0.06,meteohub,2013-06-26 23:40:00,
2013-06-26 16:45:00,69.1,54.7,30.30,WNW,291,3.0,6.0,60,0.00,,,0.06,meteohub,2013-06-26 23:45:00,
2013-06-26 16:51:00,69.3,55.2,30.30,WSW,249,3.0,6.0,61,0.00,,,0.06,meteohub,2013-06-26 23:51:00,
2013-06-26 16:56:00,69.4,54.9,30.30,West,277,5.0,6.0,60,0.00,,,0.06,meteohub,2013-06-26 23:56:00,
2013-06-26 17:01:00,69.4,54.5,30.30,West,260,3.0,6.0,59,0.00,,,0.06,meteohub,2013-06-27 00:01:00,
2013-06-26 17:06:00,69.4,55.4,30.30,West,274,3.0,6.0,61,0.00,,,0.06,meteohub,2013-06-27 00:06:00,
2013-06-26 17:11:00,69.3,54.9,30.30,WNW,286,3.0,7.0,60,0.00,,,0.06,meteohub,2013-06-27 00:11:00,
2013-06-26 17:16:00,69.4,54.5,30.30,West,272,2.0,7.0,59,0.00,,,0.06,meteohub,2013-06-27 00:16:00,
2013-06-26 17:21:00,69.6,54.7,30.30,SW,232,3.0,7.0,59,0.00,,,0.06,meteohub,2013-06-27 00:21:00,
2013-06-26 17:26:00,69.6,55.0,30.30,SW,233,0.0,8.0,60,0.00,,,0.06,meteohub,2013-06-27 00:26:00,
2013-06-26 17:31:00,70.2,55.6,30.30,SSE,157,1.0,8.0,60,0.00,,,0.06,meteohub,2013-06-27 00:31:00,
2013-06-26 17:36:00,70.7,54.7,30.30,SSE,167,0.0,8.0,57,0.00,,,0.06,meteohub,2013-06-27 00:36:00,
2013-06-26 17:42:00,71.6,55.6,30.30,SW,236,2.0,5.0,57,0.00,,,0.06,meteohub,2013-06-27 00:42:00,
2013-06-26 17:47:00,72.0,55.4,30.30,West,278,1.0,5.0,56,0.00,,,0.06,meteohub,2013-06-27 00:47:00,
2013-06-26 17:52:00,72.7,56.1,30.30,WNW,286,1.0,5.0,56,0.00,,,0.06,meteohub,2013-06-27 00:52:00,
2013-06-26 17:57:00,72.7,55.6,30.30,WSW,256,2.0,4.0,55,0.00,,,0.06,meteohub,2013-06-27 00:57:00,
2013-06-26 18:02:00,72.7,56.1,30.30,South,186,1.0,5.0,56,0.00,,,0.06,meteohub,2013-06-27 01:02:00,
2013-06-26 18:07:00,73.0,55.9,30.30,SW,229,2.0,5.0,55,0.00,,,0.06,meteohub,2013-06-27 01:07:00,
2013-06-26 18:12:00,73.0,55.9,30.30,West,261,5.0,5.0,55,0.00,,,0.06,meteohub,2013-06-27 01:12:00,
2013-06-26 18:17:00,72.9,55.8,30.30,SW,223,3.0,5.0,55,0.00,,,0.06,meteohub,2013-06-27 01:17:00,
2013-06-26 18:22:00,72.9,55.8,30.30,West,273,1.0,9.0,55,0.00,,,0.06,meteohub,2013-06-27 01:22:00,
2013-06-26 18:27:00,73.2,55.6,30.30,WNW,286,2.0,9.0,54,0.00,,,0.06,meteohub,2013-06-27 01:27:00,
2013-06-26 18:32:00,72.7,56.1,30.30,SSW,208,2.0,9.0,56,0.00,,,0.06,meteohub,2013-06-27 01:32:00,
2013-06-26 18:37:00,72.1,55.6,30.30,SW,229,5.0,6.0,56,0.00,,,0.06,meteohub,2013-06-27 01:37:00,
2013-06-26 18:42:00,71.6,56.1,30.30,West,259,0.0,7.0,58,0.00,,,0.06,meteohub,2013-06-27 01:42:00,
2013-06-26 18:48:00,71.2,55.2,30.30,WSW,242,1.0,7.0,57,0.00,,,0.06,meteohub,2013-06-27 01:48:00,
2013-06-26 18:53:00,70.9,56.3,30.30,SW,227,0.0,7.0,60,0.00,,,0.06,meteohub,2013-06-27 01:53:00,
2013-06-26 18:58:00,70.5,55.9,30.30,WSW,248,0.0,5.0,60,0.00,,,0.06,meteohub,2013-06-27 01:58:00,
2013-06-26 19:03:00,70.5,55.9,30.30,WNW,297,0.0,5.0,60,0.00,,,0.06,meteohub,2013-06-27 02:03:00,
2013-06-26 19:08:00,71.4,56.3,30.30,West,265,0.0,4.0,59,0.00,,,0.06,meteohub,2013-06-27 02:08:00,
2013-06-26 19:13:00,72.0,56.8,30.30,NNW,348,3.0,3.0,59,0.00,,,0.06,meteohub,2013-06-27 02:13:00,
2013-06-26 19:18:00,72.5,56.5,30.30,SW,227,0.0,3.0,57,0.00,,,0.06,meteohub,2013-06-27 02:18:00,
2013-06-26 19:23:00,72.7,57.0,30.30,NE,42,2.0,3.0,58,0.00,,,0.06,meteohub,2013-06-27 02:23:00,
2013-06-26 19:28:00,72.1,56.5,30.30,WSW,253,1.0,3.0,58,0.00,,,0.06,meteohub,2013-06-27 02:28:00,
2013-06-26 19:33:00,72.3,56.7,30.30,SW,223,1.0,4.0,58,0.00,,,0.06,meteohub,2013-06-27 02:33:00,
2013-06-26 19:38:00,72.3,56.7,30.29,WSW,257,1.0,5.0,58,0.00,,,0.06,meteohub,2013-06-27 02:38:00,
2013-06-26 19:43:00,72.0,57.4,30.30,NW,308,2.0,5.0,60,0.00,,,0.06,meteohub,2013-06-27 02:43:00,
2013-06-26 19:49:00,71.2,57.6,30.30,West,272,1.0,5.0,62,0.00,,,0.06,meteohub,2013-06-27 02:49:00,
2013-06-26 19:54:00,70.7,57.6,30.30,SW,226,1.0,4.0,63,0.00,,,0.06,meteohub,2013-06-27 02:54:00,
2013-06-26 19:59:00,70.3,57.2,30.30,WSW,246,2.0,4.0,63,0.00,,,0.06,meteohub,2013-06-27 02:59:00,
2013-06-26 20:04:00,70.3,57.6,30.30,WSW,242,0.0,3.0,64,0.00,,,0.06,meteohub,2013-06-27 03:04:00,
2013-06-26 20:09:00,70.3,57.6,30.30,NW,304,1.0,3.0,64,0.00,,,0.06,meteohub,2013-06-27 03:09:00,
2013-06-26 20:14:00,70.0,57.7,30.30,NW,321,1.0,2.0,65,0.00,,,0.06,meteohub,2013-06-27 03:14:00,
2013-06-26 20:19:00,69.6,57.7,30.30,WSW,245,0.0,2.0,66,0.00,,,0.06,meteohub,2013-06-27 03:19:00,
2013-06-26 20:24:00,69.3,57.9,30.30,WSW,245,0.0,2.0,67,0.00,,,0.06,meteohub,2013-06-27 03:24:00,
2013-06-26 20:29:00,68.7,58.1,30.30,WSW,245,0.0,2.0,69,0.00,,,0.06,meteohub,2013-06-27 03:29:00,
2013-06-26 20:34:00,68.4,57.7,30.30,WSW,250,1.0,1.0,69,0.00,,,0.06,meteohub,2013-06-27 03:34:00,
2013-06-26 20:39:00,67.8,57.2,30.30,WSW,251,0.0,1.0,69,0.00,,,0.06,meteohub,2013-06-27 03:39:00,
2013-06-26 20:44:00,67.6,57.0,30.30,SW,217,0.0,1.0,69,0.00,,,0.06,meteohub,2013-06-27 03:44:00,
2013-06-26 20:50:00,67.3,57.2,30.30,WSW,252,0.0,3.0,70,0.00,,,0.06,meteohub,2013-06-27 03:50:00,
2013-06-26 20:55:00,66.9,57.6,30.31,SW,236,0.0,3.0,72,0.00,,,0.06,meteohub,2013-06-27 03:55:00,
2013-06-26 21:00:00,66.6,57.6,30.31,SW,236,0.0,3.0,73,0.00,,,0.06,meteohub,2013-06-27 04:00:00,
2013-06-26 21:01:00,66.6,58.1,30.31,SW,236,0.0,2.0,74,0.00,,,0.06,meteohub,2013-06-27 04:01:00,
2013-06-26 21:02:00,66.6,58.1,30.31,SW,236,0.0,2.0,74,0.00,,,0.06,meteohub,2013-06-27 04:02:00,
2013-06-26 21:06:00,66.2,57.2,30.31,WSW,240,0.0,1.0,73,0.00,,,0.06,meteohub,2013-06-27 04:06:00,
2013-06-26 21:11:00,66.0,57.2,30.31,West,273,0.0,1.0,73,0.00,,,0.06,meteohub,2013-06-27 04:11:00,
2013-06-26 21:12:00,66.0,57.2,30.31,WSW,245,1.0,1.0,73,0.00,,,0.06,meteohub,2013-06-27 04:12:00,
2013-06-26 21:17:00,65.8,57.4,30.31,WSW,242,1.0,2.0,74,0.00,,,0.06,meteohub,2013-06-27 04:17:00,
2013-06-26 21:22:00,65.7,57.2,30.31,SW,227,1.0,3.0,74,0.00,,,0.06,meteohub,2013-06-27 04:22:00,
2013-06-26 21:27:00,65.7,57.2,30.31,NW,304,4.0,4.0,74,0.00,,,0.06,meteohub,2013-06-27 04:27:00,
2013-06-26 21:32:00,65.7,57.2,30.32,WSW,240,2.0,5.0,74,0.00,,,0.06,meteohub,2013-06-27 04:32:00,
2013-06-26 21:37:00,65.3,57.2,30.32,SW,229,0.0,5.0,75,0.00,,,0.06,meteohub,2013-06-27 04:37:00,
2013-06-26 21:42:00,64.9,57.2,30.32,SW,229,0.0,5.0,76,0.00,,,0.06,meteohub,2013-06-27 04:42:00,
2013-06-26 21:47:00,64.6,57.2,30.32,SW,229,0.0,3.0,77,0.00,,,0.06,meteohub,2013-06-27 04:47:00,
2013-06-26 21:53:00,64.2,57.2,30.33,SW,230,0.0,0.0,78,0.00,,,0.06,meteohub,2013-06-27 04:53:00,
2013-06-26 21:58:00,64.0,57.0,30.33,SW,230,0.0,0.0,78,0.00,,,0.06,meteohub,2013-06-27 04:58:00,
2013-06-26 22:03:00,63.7,57.0,30.33,SW,230,0.0,0.0,79,0.00,,,0.06,meteohub,2013-06-27 05:03:00,
2013-06-26 22:08:00,63.5,56.8,30.33,SSW,194,0.0,0.0,79,0.00,,,0.06,meteohub,2013-06-27 05:08:00,
2013-06-26 22:13:00,63.1,56.8,30.33,SSW,192,2.0,2.0,80,0.00,,,0.06,meteohub,2013-06-27 05:13:00,
2013-06-26 22:18:00,63.3,56.7,30.33,SSW,210,1.0,1.0,79,0.00,,,0.06,meteohub,2013-06-27 05:18:00,
2013-06-26 22:23:00,63.7,57.0,30.33,WSW,250,0.0,4.0,79,0.00,,,0.06,meteohub,2013-06-27 05:23:00,
2013-06-26 22:28:00,63.9,57.2,30.34,West,267,0.0,4.0,79,0.00,,,0.06,meteohub,2013-06-27 05:28:00,
2013-06-26 22:33:00,64.0,57.4,30.34,West,272,0.0,5.0,79,0.00,,,0.06,meteohub,2013-06-27 05:33:00,
2013-06-26 22:38:00,63.9,57.6,30.34,NE,40,1.0,5.0,80,0.00,,,0.06,meteohub,2013-06-27 05:38:00,
2013-06-26 22:43:00,63.3,57.4,30.34,East,100,0.0,5.0,81,0.00,,,0.06,meteohub,2013-06-27 05:43:00,
2013-06-26 22:48:00,63.0,57.4,30.34,East,100,0.0,2.0,82,0.00,,,0.06,meteohub,2013-06-27 05:48:00,
2013-06-26 22:54:00,62.8,57.6,30.34,East,99,0.0,2.0,83,0.00,,,0.06,meteohub,2013-06-27 05:54:00,
2013-06-26 22:59:00,62.2,57.0,30.34,East,100,0.0,1.0,83,0.00,,,0.06,meteohub,2013-06-27 05:59:00,
2013-06-26 23:04:00,62.1,57.2,30.34,East,100,0.0,0.0,84,0.00,,,0.06,meteohub,2013-06-27 06:04:00,
2013-06-26 23:09:00,61.9,57.0,30.34,East,100,0.0,0.0,84,0.00,,,0.06,meteohub,2013-06-27 06:09:00,
2013-06-26 23:14:00,61.9,57.0,30.34,East,100,0.0,1.0,84,0.00,,,0.06,meteohub,2013-06-27 06:14:00,
2013-06-26 23:19:00,61.5,56.7,30.33,East,100,0.0,1.0,84,0.00,,,0.06,meteohub,2013-06-27 06:19:00,
2013-06-26 23:24:00,61.3,56.8,30.34,East,100,0.0,0.0,85,0.00,,,0.06,meteohub,2013-06-27 06:24:00,
2013-06-26 23:29:00,61.3,56.8,30.34,East,100,0.0,0.0,85,0.00,,,0.06,meteohub,2013-06-27 06:29:00,
2013-06-26 23:34:00,61.3,56.8,30.34,East,100,0.0,0.0,85,0.00,,,0.06,meteohub,2013-06-27 06:34:00,
2013-06-26 23:39:00,61.3,56.8,30.34,East,100,0.0,0.0,85,0.00,,,0.06,meteohub,2013-06-27 06:39:00,
2013-06-26 23:44:00,61.2,56.7,30.34,East,97,0.0,1.0,85,0.00,,,0.06,meteohub,2013-06-27 06:44:00,
2013-06-26 23:49:00,61.2,56.7,30.34,East,92,0.0,1.0,85,0.00,,,0.06,meteohub,2013-06-27 06:49:00,
2013-06-26 23:54:00,61.0,56.5,30.34,East,92,0.0,1.0,85,0.00,,,0.06,meteohub,2013-06-27 06:54:00,